DL3NBY Weather Reports


time (UTC)temp
F
wind
direction
speed
knots
gust
knots
rain 1hr
in
rain 24hr
in
rain mn
in
humidity
%
barometer
mb
20240420161016 49 176 0.9 5.2 0.00 0.14 0.04 64 1016.3
20240420155135 52 218 0.9 3.5 0.00 0.19 0.04 56 1016.3
20240420154126 52 344 0.9 3.5 0.00 0.19 0.04 57 1016.2
20240420153143 52 313 1.7 6.1 0.00 0.20 0.04 54 1016.2
20240420150053 50 90 0.9 2.6 0.00 0.26 0.04 66 1016.3
20240420145050 48 0.0 0.9 0.00 0.28 0.04 68 1016.2
20240420143044 48 73 0.9 5.2 0.00 0.30 0.04 73 1016.4
20240420142101 48 80 0.9 3.5 0.00 0.30 0.04 71 1016.5
20240420141058 47 0.0 1.7 0.00 0.32 0.04 76 1016.5
20240420135031 47 120 0.9 6.1 0.00 0.38 0.04 79 1016.6
20240420134028 47 0 0.0 3.5 0.00 0.39 0.04 72 1016.7
20240420131018 47 274 2.6 7.0 0.00 0.44 0.04 70 1016.4
20240420124129 43 270 0.0 1.7 0.00 0.48 0.04 81 1016.5
20240420114050 46 280 0.9 3.5 0.01 0.56 0.04 71 1015.7
20240420113045 46 0.0 1.7 0.01 0.58 0.04 74 1015.6
20240420112102 46 61 0.0 2.6 0.01 0.59 0.04 75 1015.6
20240420111039 47 35 0.0 4.3 0.01 0.60 0.04 74 1015.6
20240420105033 45 225 0.9 4.3 0.01 0.64 0.04 79 1015.5
20240420104052 46 276 0.9 4.3 0.00 0.64 0.02 73 1015.4
20240420103026 47 41 1.7 4.3 0.00 0.64 0.02 72 1015.3
20240420101020 46 343 0.9 1.7 0.00 0.65 0.02 73 1015.2
20240420100019 47 207 0.9 3.5 0.00 0.67 0.02 72 1015.1
20240420095134 47 326 1.7 4.3 0.00 0.69 0.02 71 1015.0
20240420091121 45 71 0.9 5.2 0.00 0.71 0.02 80 1014.7
20240420085054 43 110 1.7 7.0 0.00 0.71 0.02 80 1014.4
20240420084051 43 258 0.9 2.6 0.00 0.71 0.02 80 1014.3
20240420082044 42 294 1.7 7.8 0.00 0.72 0.02 81 1013.9
20240420081041 42 10 1.7 6.1 0.00 0.72 0.02 81 1013.7
20240420075035 42 3 1.7 5.2 0.00 0.73 0.02 81 1013.2
20240420073029 42 322 0.9 3.5 0.00 0.74 0.02 83 1012.9
20240420061103 40 285 0.9 5.2 0.00 0.76 0.02 89 1011.5
20240420060100 40 276 0.9 7.8 0.00 0.77 0.02 89 1011.4
20240420054053 40 277 2.6 7.0 0.00 0.77 0.02 92 1011.0
20240420052107 40 291 0.9 5.2 0.00 0.77 0.02 93 1010.7
20240420051044 39 337 1.7 8.7 0.00 0.77 0.02 92 1010.6
20240420044034 39 280 1.7 7.0 0.00 0.77 0.02 93 1010.0
20240420043051 39 322 0.9 3.5 0.00 0.77 0.02 93 1009.9
20240420042028 39 306 1.7 5.2 0.00 0.77 0.02 94 1009.7
20240420041024 39 235 0.9 4.3 0.00 0.77 0.02 94 1009.7
20240420035018 39 287 0.9 7.0 0.00 0.77 0.02 95 1009.4
20240420034115 39 300 0.9 4.3 0.00 0.77 0.02 95 1009.2
20240420033115 39 170 0.0 2.6 0.00 0.77 0.02 96 1009.2
20240420032128 39 238 0.9 5.2 0.00 0.77 0.02 96 1009.0
20240420030101 39 270 0.9 3.5 0.00 0.77 0.02 96 1008.7
20240420025058 39 278 0.9 3.5 0.00 0.77 0.02 96 1008.6
20240420024055 39 318 0.9 3.5 0.00 0.77 0.02 96 1008.5
20240420023052 39 313 0.9 5.2 0.00 0.77 0.02 96 1008.3
20240420022048 39 270 0.9 2.6 0.00 0.77 0.02 97 1008.2
20240420021045 39 270 0.0 1.7 0.00 0.77 0.02 97 1008.2
20240420020042 39 285 1.7 6.1 0.00 0.77 0.02 97 1008.0
20240420015039 40 283 1.7 5.2 0.00 0.77 0.02 97 1007.8
20240420014038 40 278 0.9 3.5 0.00 0.77 0.02 96 1007.6
20240420013032 40 239 0.9 3.5 0.00 0.77 0.02 96 1007.5
20240420012029 40 302 1.7 5.2 0.00 0.77 0.02 97 1007.3
20240420010022 40 270 1.7 7.0 0.01 0.77 0.02 97 1007.1
20240420005059 40 320 1.7 5.2 0.01 0.77 0.02 97 1006.9
20240420003112 40 276 1.7 9.6 0.01 0.77 0.02 97 1006.7
20240420002107 40 282 1.7 5.2 0.01 0.77 0.02 97 1006.8
20240419235058 40 213 0.9 4.3 0.00 0.76 0.01 97 1006.6
20240419234055 40 238 1.7 7.0 0.00 0.76 0.01 97 1006.6
20240419233051 40 253 2.6 6.1 0.01 0.76 0.01 97 1006.5
20240419232048 40 327 2.6 9.6 0.01 0.76 0.01 96 1006.4
20240419231044 40 251 3.5 10.4 0.01 0.76 0.01 96 1006.4
20240419225038 40 301 3.5 8.7 0.01 0.76 0.01 97 1006.2
20240419224035 40 258 3.5 9.6 0.01 0.76 0.01 97 1006.1
20240419223031 40 270 2.6 10.4 0.00 0.74 0.00 97 1006.2
20240419222058 40 112 3.5 10.4 0.00 0.74 0.00 97 1006.1
20240419221118 40 268 2.6 7.0 0.00 0.74 0.00 97 1006.1
20240419220052 40 270 1.7 7.0 0.00 0.74 0.00 97 1006.1
20240419214045 40 266 2.6 8.7 0.00 0.74 0.74 97 1005.9
20240419213102 40 222 3.5 9.6 0.00 0.74 0.74 98 1005.7
20240419212119 41 257 2.6 7.0 0.00 0.74 0.74 98 1005.8
20240419211036 41 297 1.7 7.8 0.00 0.74 0.74 98 1005.6
20240419204126 40 277 0.9 3.5 0.00 0.74 0.74 99 1005.6
20240419203023 40 270 0.0 1.7 0.02 0.74 0.74 98 1005.4
20240419201016 40 0.0 0.0 0.02 0.74 0.74 97 1005.3
20240419200112 41 270 0.0 2.6 0.02 0.74 0.74 96 1005.2
20240419195112 41 251 0.9 6.1 0.02 0.74 0.74 96 1005.0
20240419194106 42 290 0.9 2.6 0.02 0.74 0.74 97 1005.1
20240419192100 42 300 2.6 7.0 0.00 0.72 0.72 98 1004.5
20240419191116 42 282 1.7 7.8 0.00 0.72 0.72 98 1004.4
20240419185110 42 257 1.7 8.7 0.04 0.72 0.72 98 1004.2
20240419183039 42 291 1.7 5.2 0.07 0.72 0.72 98 1004.1
20240419181031 42 270 0.9 7.0 0.07 0.72 0.72 98 1004.0
20240419180028 42 277 1.7 4.3 0.06 0.71 0.71 98 1003.9
20240419174021 42 264 2.6 6.1 0.02 0.67 0.67 97 1003.8
20240419173041 42 270 1.7 6.1 0.00 0.65 0.65 97 1003.7
20240419172115 42 251 2.6 7.0 0.00 0.65 0.65 97 1003.6
20240419165105 42 288 2.6 6.1 0.06 0.65 0.65 97 1003.5
20240419164102 42 251 4.3 8.7 0.06 0.65 0.65 97 1003.3